Regional Weather Roundup
Issued by NWS

Home | Current Version | Previous Version | Graphics & Text | Print | Product List | Glossary On
Versions: 1 2 3 4 5 6 7 8 9 10 11 12 13 14 15 16 17 18 19 20 21 22 23 24 25 26 27 28 29 30 31 32 33 34 35 36 37 38 39 40 41 42 43 44 45 46 47 48 49 50
000
ASUS43 KDMX 261506
RWRIA

WEATHER ROUNDUP FOR IOWA
NATIONAL WEATHER SERVICE DES MOINES IA
1000 AM CDT WED JUL 26 2017

NOTE: "FAIR" INDICATES FEW OR NO CLOUDS BELOW 12,000 FEET WITH NO
SIGNIFICANT WEATHER AND/OR OBSTRUCTIONS TO VISIBILITY.

* - THESE STATIONS ARE NOT NWS STATIONS...THUS NOT UNDER NWS
QUALITY CONTROL.  THEY ALSO DO NOT REPORT WEATHER SUCH
AS PRECIPITATION OR FOG.

IAZ001>003-012>014-020>022-031>034-043>046-261600-
   NORTHWEST IOWA

CITY           SKY/WX    TMP DP  RH WIND       PRES   REMARKS
CARROLL *      CLOUDY    72  72 100 SE7       29.99F
CHEROKEE *     RAIN      72  72 100 N5        30.02R
DENISON *      CLOUDY    73  72  94 SE12      30.01R
ORANGE CITY *  CLOUDY    75  72  88 E7        30.02R
SHELDON *      CLOUDY    73  70  88 NE9       30.01R
SIOUX CITY     CLOUDY    74  72  93 NE7       30.00R
SPENCER        CLOUDY    74  70  87 E10       30.01F
STORM LAKE *   LGT RAIN  72  72 100 NE10      30.03R
$$

IAZ055>058-069>071-079>083-090>094-261600-
   SOUTHWEST IOWA

CITY           SKY/WX    TMP DP  RH WIND       PRES   REMARKS
ATLANTIC *     CLOUDY    75  72  88 S7        29.99F
AUDUBON *      LGT RAIN  72  68  88 CALM      30.01F
CLARINDA *     CLOUDY    73  73 100 CALM      30.03F
COUNCIL BLFS * LGT RAIN  75  75 100 S13       29.99S
CRESTON *      DRIZZLE   75  73  94 SW5       30.04S
HARLAN  *      CLOUDY    73  73 100 S7        30.02F
LAMONI         CLOUDY    75  71  87 SW5       30.04R
RED OAK *      PTSUNNY   73  73 100 S5        29.99F
SHENANDOAH *   CLOUDY    75  73  94 S3        30.00F
$$

IAZ047>049-059>061-072>074-084-261600-
   CENTRAL IOWA

CITY           SKY/WX    TMP DP  RH WIND       PRES   REMARKS
AMES           RAIN      74  72  93 SW5       30.00S FOG
ANKENY *       CLOUDY    77  70  78 SW5       30.01F
BOONE *        LGT RAIN  73  72  94 SW5       30.00F
CHARITON *     CLOUDY    77  72  83 SW5       30.02S
DES MOINES     LGT RAIN  76  70  82 SW5       30.00S
GRINNELL*      CLOUDY    75  71  85 S6        30.03S
KNOXVILLE *    CLOUDY    77  70  78 SW6       30.00S
MARSHALLTOWN   CLOUDY    76  71  85 S8        30.00S
NEWTON *       CLOUDY    73  72  94 SW6       30.02R
PELLA *        CLOUDY    77  70  80 S5        30.02S
PERRY *        LGT RAIN  74  72  95 S6        30.01S
$$

IAZ004>006-015-016-023>025-035-036-261600-
   NORTH CENTRAL IOWA

CITY           SKY/WX    TMP DP  RH WIND       PRES   REMARKS
ALGONA *       LGT RAIN  72  72 100 NE16      30.02F
CLARION *      CLOUDY    72  72 100 NE13      30.03R FOG
ESTHERVILLE    LGT RAIN  72  72 100 E7        30.03R FOG
FORT DODGE *   CLOUDY    72  68  88 NE7       30.03S
MASON CITY     RAIN      71  70  96 N9        30.07R FOG
FOREST CITY *  LGT RAIN  72  70  94 N9        30.04F
WEBSTER CITY * CLOUDY    73  72  94 SW3       30.00R FOG
IOWA FALLS *     N/A     74  71  88 CALM      30.02S
$$

IAZ007>011-017>019-026>030-037>042-050>054-066-261600-
   NORTHEAST IOWA

CITY           SKY/WX    TMP DP  RH WIND       PRES   REMARKS
CHARLES CITY * CLOUDY    73  73 100 CALM      30.04R
DECORAH *      CLOUDY    73  70  88 CALM      30.04S
DUBUQUE        CLOUDY    74  70  87 S8        30.05S
MONTICELLO *   CLOUDY    79  73  83 VRB7      30.03S HX  82
OELWEIN *      CLOUDY    75  73  94 S8        30.02F
WATERLOO       CLOUDY    75  70  84 S6        29.99F
$$

IAZ064-065-067-068-078-261600-
   EAST CENTRAL IOWA

CITY           SKY/WX    TMP DP  RH WIND       PRES   REMARKS
DAVENPORT      MOSUNNY   78  71  79 S8        30.05F HX  80
IOWA CITY      CLOUDY    79  73  82 S6        30.03F HX  82
MT. PLEASANT * CLOUDY    79  74  83 S6        30.03S HX  83
MUSCATINE *    CLOUDY    79  72  78 S8        30.03S HX  82
QUAD CITIES    CLOUDY    79  71  76 S5        30.03F HX  82
$$

IAZ062-063-075>077-085>089-095>099-261600-
   SOUTHEAST IOWA

CITY           SKY/WX    TMP DP  RH WIND       PRES   REMARKS
BURLINGTON     CLOUDY    79  74  84 S7        30.03F HX  82
FAIRFIELD *    CLOUDY    79  72  78 S7        30.01F HX  82
FORT MADISON * PTSUNNY   79  73  83 CALM      30.05R HX  82
KEOKUK *       CLOUDY    81  73  78 SW7       30.03R HX  85
OSKALOOSA *      N/A     77  71  82 S7        30.02S
CENTERVILLE *    N/A     77  73  88 CALM      30.04S
OTTUMWA        CLOUDY    79  72  79 S8        30.02S HX  82
WASHINGTON *   CLOUDY    79  73  83 S7        30.03F HX  82
$$

ABBREVIATIONS USED IN REMARKS
   TC - TEMPERATURES IN CELSIUS
  WCI - WIND CHILL INDEX
   HX - HEAT INDEX
  VSB - VISIBILITY
$$





USA.gov is the U.S. government's official web portal to all federal, state and local government web resources and services.